This is the latest recevied weather packets stored in our database for station/object VK1KCM-5. If no packets are shown the sender has not sent any weather packets the latest 1 day(s).
| Time | Temp. | Humidity | Pressure | Rain* | Wind** | Luminosity | Snow |
|---|---|---|---|---|---|---|---|
| 1836274778 | 13.33° C | 47% | 1006.9 hPa | 0 mm | 2.68 m/s, 262° | - | - |
| 1836274498 | 13.89° C | 46% | 1006.7 hPa | 0 mm | 2.24 m/s, 221° | - | - |
| 1836274308 | 13.89° C | 45% | 1006.6 hPa | 0 mm | 1.34 m/s, 265° | - | - |
| 1836274213 | 13.89° C | 47% | 1006.8 hPa | 0 mm | 0.45 m/s, 270° | - | - |
| 1836273948 | 14.44° C | 43% | 1006.6 hPa | 0 mm | 1.34 m/s, 255° | - | - |
| 1778050865 | 19.44° C | 43% | 1008.7 hPa | 0 mm | 0.89 m/s, 253° | - | - |
| 1778050601 | 19.44° C | 43% | 1008.7 hPa | 0 mm | 0.89 m/s, 253° | - | - |
| 1778050330 | 19.44° C | 43% | 1008.7 hPa | 0 mm | 0.89 m/s, 253° | - | - |
| 1778050045 | 19.44° C | 43% | 1008.7 hPa | 0 mm | 0.89 m/s, 253° | - | - |
| 1778049795 | 19.44° C | 43% | 1008.7 hPa | 0 mm | 0.89 m/s, 253° | - | - |
| 1778049541 | 19.44° C | 43% | 1008.7 hPa | 0 mm | 0.89 m/s, 253° | - | - |
| 1778049289 | 19.44° C | 43% | 1008.7 hPa | 0 mm | 0.89 m/s, 253° | - | - |
| 1778048994 | 19.44° C | 43% | 1008.7 hPa | 0 mm | 0.89 m/s, 253° | - | - |
| 1778048745 | 19.44° C | 43% | 1008.7 hPa | 0 mm | 0.89 m/s, 253° | - | - |
| 1778048475 | 19.44° C | 43% | 1008.7 hPa | 0 mm | 0.89 m/s, 253° | - | - |
| 1778048209 | 19.44° C | 43% | 1008.7 hPa | 0 mm | 0.89 m/s, 253° | - | - |
| 1778047921 | 19.44° C | 43% | 1008.7 hPa | 0 mm | 0.89 m/s, 253° | - | - |
| 1778047675 | 19.44° C | 43% | 1008.7 hPa | 0 mm | 0.89 m/s, 253° | - | - |
| 1778047385 | 19.44° C | 43% | 1008.7 hPa | 0 mm | 0.89 m/s, 253° | - | - |
| 1778047120 | 19.44° C | 43% | 1008.7 hPa | 0 mm | 0.89 m/s, 253° | - | - |
| 1778046870 | 19.44° C | 43% | 1008.7 hPa | 0 mm | 0.89 m/s, 253° | - | - |
| 1778046620 | 19.44° C | 43% | 1008.7 hPa | 0 mm | 0.89 m/s, 253° | - | - |
| 1778046335 | 19.44° C | 43% | 1008.7 hPa | 0 mm | 0.89 m/s, 253° | - | - |
| 1778046070 | 19.44° C | 43% | 1008.7 hPa | 0 mm | 0.89 m/s, 253° | - | - |
| 1778045828 | 19.44° C | 43% | 1008.7 hPa | 0 mm | 0.89 m/s, 253° | - | - |
* Rain latest hour (hover to see other rain measurements)
** Current wind speed in m/s (hover to see current wind gust speed)